Regional Weather Roundup
Issued by NWS Nashville, TN

Home | Current Version | Previous Version | Text Only | Print | Product List | Glossary On
Versions: 1 2 3 4 5 6 7 8 9 10 11 12 13 14 15 16 17 18 19 20 21 22 23 24 25 26 27
000
ASUS44 KOHX 270310
RWROHX
MIDDLE TENNESSEE HOURLY WEATHER ROUNDUP
NATIONAL WEATHER SERVICE NASHVILLE TN
1000 PM CDT TUE JUL 26 2016

NOTE: "FAIR" INDICATES FEW OR NO CLOUDS BELOW 12,000 FEET WITH
NO SIGNIFICANT WEATHER AND/OR OBSTRUCTIONS TO VISIBILITY.

* THESE REPORTS ARE NOT UNDER NWS QUALITY CONTROL AND MAY NOT
  REPORT WEATHER SUCH AS PRECIPITATION AND FOG.


TNZ005>011-023>034-057-059-062>066-078-080-270400
...NORTHERN MIDDLE TENNESSEE...

CITY           SKY/WX    TMP DP  RH WIND       PRES   REMARKS
CLARKSVILLE    LGT RAIN  79  73  82 NW6       30.01R
CROSSVILLE     PTCLDY    78  72  81 CALM      30.09R
NASHVILLE      CLOUDY    77  70  79 SW3       30.01S
SMYRNA         CLOUDY    80  71  74 CALM      30.02R
SPARTA         PTCLDY    79  75  89 CALM      30.03R
$$
TNZ056-058-060-061-075>077-079-093>097-270400
...SOUTHERN MIDDLE TENNESSEE...

CITY           SKY/WX    TMP DP  RH WIND       PRES   REMARKS
COLUMBIA       CLEAR     79  79 100 CALM      30.01R
FAYETTEVILLE   CLEAR     81  72  74 NE6       30.03R
MCMINNVILLE    CLEAR     79  75  89 SW5       30.05R
SHELBYVILLE    CLOUDY    75  75 100 NE7       30.04F
TULLAHOMA      PTCLDY    79  70  73 N6        30.06R
WINCHESTER     CLEAR     81  73  78 CALM      30.04R
$$


...KEY TO REMARKS...
VSB - VISIBILITY IN MILES
WCI - WIND CHILL INDEX
HX  - HEAT INDEX





USA.gov is the U.S. government's official web portal to all federal, state and local government web resources and services.